• In Österreich
  • Länderverzeichnis
  • Für 7 Tage
  • Wassertemperatur
  • Satellitenkarten
  • Wetterkarte
  • News
  • Widgets
  • user-avatar
    Anmelden

    Stündliche Wetter Ganja

    Heute, 14 August, Dienstag

    Zeit Temperatur Niederschläge Wind Luftdruck Luftfeuchtigkeit
    00:00 +25°C° 0 mm 2 m/S 724 mmHg 59%
    01:00 +25°C° 0 mm 2 m/S 724 mmHg 61%
    02:00 +24°C° 0 mm 2 m/S 724 mmHg 63%
    03:00 +24°C° 0 mm 2 m/S 724 mmHg 66%
    04:00 +24°C° 0 mm 2 m/S 724 mmHg 66%
    05:00 +24°C° 0 mm 2 m/S 724 mmHg 66%
    06:00 +24°C° 0 mm 2 m/S 725 mmHg 66%
    07:00 +24°C° 0 mm 3 m/S 725 mmHg 64%
    08:00 +25°C° 0 mm 3 m/S 725 mmHg 62%
    09:00 +26°C° 0 mm 4 m/S 725 mmHg 60%
    10:00 +26°C° 0 mm 4 m/S 725 mmHg 57%
    11:00 +27°C° 0 mm 5 m/S 725 mmHg 53%
    12:00 +28°C° 0 mm 5 m/S 725 mmHg 50%
    13:00 +29°C° 0 mm 5 m/S 724 mmHg 46%
    14:00 +30°C° 0 mm 5 m/S 724 mmHg 43%
    15:00 +29°C° 0 mm 6 m/S 725 mmHg 42%
    16:00 +29°C° 0 mm 6 m/S 725 mmHg 44%
    17:00 +28°C° 0 mm 5 m/S 725 mmHg 46%
    18:00 +28°C° 0 mm 5 m/S 725 mmHg 48%
    19:00 +27°C° 0 mm 4 m/S 725 mmHg 51%
    20:00 +26°C° 0 mm 4 m/S 725 mmHg 53%
    21:00 +25°C° 0 mm 3 m/S 726 mmHg 56%
    22:00 +25°C° 0 mm 3 m/S 726 mmHg 57%
    23:00 +25°C° 0 mm 3 m/S 726 mmHg 58%

    Morgen, 15 August, Mittwoch

    Zeit Temperatur Niederschläge Wind Luftdruck Luftfeuchtigkeit
    00:00 +25°C° 0 mm 3 m/S 726 mmHg 59%
    01:00 +24°C° 0,1 mm 3 m/S 726 mmHg 61%
    02:00 +24°C° 0,1 mm 2 m/S 725 mmHg 62%
    03:00 +23°C° 0,1 mm 2 m/S 725 mmHg 64%
    04:00 +23°C° 0 mm 2 m/S 725 mmHg 64%
    05:00 +23°C° 0 mm 2 m/S 725 mmHg 64%
    06:00 +23°C° 0 mm 2 m/S 726 mmHg 64%
    07:00 +24°C° 0 mm 2 m/S 726 mmHg 60%
    08:00 +25°C° 0 mm 2 m/S 726 mmHg 56%
    09:00 +26°C° 0 mm 2 m/S 726 mmHg 52%
    10:00 +27°C° 0 mm 3 m/S 726 mmHg 49%
    11:00 +28°C° 0 mm 3 m/S 725 mmHg 46%
    12:00 +29°C° 0 mm 3 m/S 725 mmHg 43%
    13:00 +30°C° 0 mm 4 m/S 725 mmHg 40%
    14:00 +32°C° 0 mm 4 m/S 725 mmHg 38%
    15:00 +33°C° 0 mm 4 m/S 725 mmHg 36%
    16:00 +32°C° 0 mm 4 m/S 725 mmHg 38%
    17:00 +30°C° 0 mm 4 m/S 725 mmHg 39%
    18:00 +30°C° 0 mm 4 m/S 725 mmHg 41%
    19:00 +29°C° 0 mm 4 m/S 725 mmHg 44%
    20:00 +27°C° 0 mm 3 m/S 725 mmHg 47%
    21:00 +26°C° 0 mm 3 m/S 726 mmHg 50%
    22:00 +25°C° 0 mm 3 m/S 726 mmHg 52%
    23:00 +25°C° 0 mm 3 m/S 726 mmHg 53%

    übermorgen, 16 August, Donnerstag

    Zeit Temperatur Niederschläge Wind Luftdruck Luftfeuchtigkeit
    00:00 +24°C° 0 mm 3 m/S 726 mmHg 55%
    01:00 +24°C° 0 mm 2 m/S 726 mmHg 57%
    02:00 +23°C° 0 mm 2 m/S 726 mmHg 59%
    03:00 +23°C° 0 mm 2 m/S 726 mmHg 60%
    04:00 +23°C° 0 mm 1 m/S 726 mmHg 60%
    05:00 +23°C° 0 mm 1 m/S 726 mmHg 61%
    06:00 +23°C° 0 mm 1 m/S 726 mmHg 61%
    07:00 +24°C° 0 mm 1 m/S 726 mmHg 56%
    08:00 +26°C° 0 mm 1 m/S 726 mmHg 52%
    09:00 +27°C° 0 mm 2 m/S 726 mmHg 47%
    10:00 +29°C° 0 mm 2 m/S 725 mmHg 44%
    11:00 +30°C° 0 mm 3 m/S 725 mmHg 41%
    12:00 +31°C° 0 mm 3 m/S 725 mmHg 38%
    13:00 +33°C° 0 mm 3 m/S 724 mmHg 37%
    14:00 +34°C° 0 mm 3 m/S 724 mmHg 36%
    15:00 +34°C° 0 mm 3 m/S 723 mmHg 35%
    16:00 +34°C° 0 mm 3 m/S 723 mmHg 37%
    17:00 +33°C° 0 mm 3 m/S 723 mmHg 38%
    18:00 +33°C° 0 mm 3 m/S 723 mmHg 40%
    19:00 +30°C° 0 mm 3 m/S 724 mmHg 43%
    20:00 +29°C° 0 mm 2 m/S 724 mmHg 45%
    21:00 +28°C° 0 mm 2 m/S 725 mmHg 48%
    22:00 +27°C° 0 mm 2 m/S 725 mmHg 49%
    23:00 +27°C° 0 mm 2 m/S 724 mmHg 50%

    17 August, Freitag

    Zeit Temperatur Niederschläge Wind Luftdruck Luftfeuchtigkeit
    00:00 +26°C° 0 mm 2 m/S 724 mmHg 50%
    01:00 +26°C° 0 mm 2 m/S 724 mmHg 51%
    02:00 +25°C° 0 mm 1 m/S 724 mmHg 51%
    03:00 +25°C° 0 mm 1 m/S 724 mmHg 52%
    04:00 +25°C° 0 mm 1 m/S 724 mmHg 51%
    05:00 +25°C° 0 mm 2 m/S 724 mmHg 50%
    06:00 +25°C° 0 mm 2 m/S 724 mmHg 50%
    07:00 +27°C° 0 mm 2 m/S 723 mmHg 45%
    08:00 +29°C° 0 mm 2 m/S 723 mmHg 41%
    09:00 +30°C° 0 mm 2 m/S 723 mmHg 36%
    10:00 +32°C° 0 mm 2 m/S 723 mmHg 35%
    11:00 +34°C° 0 mm 2 m/S 722 mmHg 33%
    12:00 +35°C° 0 mm 2 m/S 722 mmHg 32%
    13:00 +36°C° 0 mm 2 m/S 721 mmHg 31%
    14:00 +36°C° 0 mm 3 m/S 721 mmHg 31%
    15:00 +37°C° 0 mm 3 m/S 721 mmHg 30%
    16:00 +36°C° 0 mm 3 m/S 721 mmHg 32%
    17:00 +36°C° 0 mm 3 m/S 721 mmHg 34%
    18:00 +35°C° 0 mm 2 m/S 721 mmHg 36%
    19:00 +34°C° 0 mm 2 m/S 721 mmHg 38%
    20:00 +31°C° 0 mm 2 m/S 721 mmHg 41%
    21:00 +30°C° 0 mm 2 m/S 722 mmHg 44%
    22:00 +29°C° 0 mm 2 m/S 721 mmHg 45%
    23:00 +28°C° 0 mm 2 m/S 721 mmHg 47%

    18 August, Samstag

    Zeit Temperatur Niederschläge Wind Luftdruck Luftfeuchtigkeit
    00:00 +28°C° 0 mm 2 m/S 721 mmHg 49%
    01:00 +27°C° 0 mm 1 m/S 721 mmHg 50%
    02:00 +27°C° 0 mm 1 m/S 721 mmHg 51%
    03:00 +26°C° 0 mm 1 m/S 721 mmHg 52%
    04:00 +26°C° 0 mm 1 m/S 721 mmHg 51%
    05:00 +26°C° 0 mm 2 m/S 721 mmHg 50%
    06:00 +26°C° 0 mm 2 m/S 721 mmHg 50%
    07:00 +28°C° 0 mm 2 m/S 721 mmHg 46%
    08:00 +30°C° 0 mm 3 m/S 721 mmHg 41%
    09:00 +31°C° 0 mm 3 m/S 721 mmHg 37%
    10:00 +33°C° 0 mm 3 m/S 720 mmHg 35%
    11:00 +34°C° 0 mm 2 m/S 720 mmHg 34%
    12:00 +35°C° 0 mm 2 m/S 719 mmHg 32%
    13:00 +36°C° 0,1 mm 2 m/S 719 mmHg 32%
    14:00 +36°C° 0,1 mm 2 m/S 719 mmHg 31%
    15:00 +37°C° 0,1 mm 2 m/S 718 mmHg 31%
    16:00 +36°C° 0,2 mm 2 m/S 719 mmHg 33%
    17:00 +35°C° 0,2 mm 2 m/S 719 mmHg 35%
    18:00 +35°C° 0,2 mm 2 m/S 719 mmHg 37%
    19:00 +32°C° 0,1 mm 2 m/S 720 mmHg 40%
    20:00 +31°C° 0,1 mm 2 m/S 720 mmHg 43%
    21:00 +29°C° 0,1 mm 2 m/S 721 mmHg 45%
    22:00 +28°C° 0,1 mm 2 m/S 721 mmHg 46%
    23:00 +28°C° 0,1 mm 2 m/S 721 mmHg 47%

    19 August, Sonntag

    Zeit Temperatur Niederschläge Wind Luftdruck Luftfeuchtigkeit
    00:00 +27°C° 0,1 mm 2 m/S 721 mmHg 48%
    01:00 +26°C° 0,4 mm 2 m/S 721 mmHg 50%
    02:00 +26°C° 0,4 mm 2 m/S 721 mmHg 51%
    03:00 +25°C° 0,4 mm 2 m/S 721 mmHg 53%
    04:00 +25°C° 0 mm 2 m/S 721 mmHg 54%
    05:00 +25°C° 0 mm 2 m/S 721 mmHg 56%
    06:00 +25°C° 0 mm 2 m/S 722 mmHg 58%
    07:00 +27°C° 0 mm 3 m/S 722 mmHg 53%
    08:00 +28°C° 0 mm 3 m/S 722 mmHg 49%
    09:00 +30°C° 0 mm 3 m/S 722 mmHg 44%
    10:00 +31°C° 0 mm 3 m/S 722 mmHg 42%
    11:00 +33°C° 0 mm 3 m/S 721 mmHg 39%
    12:00 +34°C° 0 mm 3 m/S 721 mmHg 36%
    13:00 +34°C° 0 mm 3 m/S 721 mmHg 35%
    14:00 +35°C° 0 mm 4 m/S 721 mmHg 34%
    15:00 +36°C° 0 mm 4 m/S 721 mmHg 33%
    16:00 +35°C° 0 mm 5 m/S 721 mmHg 35%
    17:00 +35°C° 0 mm 5 m/S 721 mmHg 37%
    18:00 +34°C° 0 mm 5 m/S 721 mmHg 38%
    19:00 +32°C° 0 mm 6 m/S 722 mmHg 42%
    20:00 +30°C° 0 mm 6 m/S 722 mmHg 46%
    21:00 +28°C° 0 mm 7 m/S 722 mmHg 50%
    22:00 +28°C° 0,1 mm 6 m/S 723 mmHg 52%
    23:00 +27°C° 0,1 mm 6 m/S 723 mmHg 54%
    Mehr zeigen